Flag for Norway Weather past 2 weeks in Lillestrøm, Norway

Now
54 °F

Cool.


Feels Like: 54 °F
Forecast: 47 / 67 °F
Wind: 1 mph from Northeast

Location: Oslo-Blindern

Current Time: Aug 28, 2014 at 8:07:48 AM

Latest Report: Aug 28, 2014 at 7:00 AM


Visibility: N/A

Pressure: 29.98 "Hg

Humidity: 71%

Dew point: 45 °F

Location of LillestrømLocation

Historic Weather in Lillestrøm — Graph

°F

Lillestrøm temperature yesterday

Maximum temperature yesterday: 68 °F (at 5:00 PM)
Minimum temperature yesterday: 52 °F (at 6:00 AM)
Average temperature yesterday: 61 °F

Past Weeks' High & Low Weather Summary

 TemperatureHumidityPressure
High69 °F (Aug 15, 5:00 PM)97% (Aug 17, 11:00 AM)29.97 "Hg (Aug 17, 11:00 AM)
Low46 °F (Aug 24, 6:00 AM)39% (Aug 27, 2:00 PM)29.18 "Hg (Aug 18, 9:00 AM)
Average57 °F78%29.57 "Hg
* Reported Aug 13 8:00 AM — Aug 28 6:00 AM, Lillestrøm, Weather by CustomWeather, © 2014

Note: Actual official high and low records may vary slightly from our data, if they occured in-between our weather recording intervals... More about our weather records

Advertising

Lillestrøm weather history for previous 24 hours

 ConditionsComfort  
Time TempWeatherWind HumidityBarometerVisibility
6:00 AM
Aug 28
54 °FCool.1 mph66%29.97 "HgN/A
5:00 AM55 °FPassing clouds.1 mph66%29.97 "Hg47 mi
4:00 AM56 °FCool.1 mph65%29.97 "HgN/A
3:00 AM56 °FCool.5 mph66%29.96 "HgN/A
2:00 AM57 °FPassing clouds.6 mph66%29.96 "Hg47 mi
1:00 AM58 °FCool.6 mph64%29.96 "HgN/A
12:00 AM59 °FRefreshingly cool.5 mph59%29.95 "HgN/A
11:00 PM
Aug 27
59 °FPassing clouds.3 mph63%29.94 "Hg47 mi
10:00 PM59 °FCool.3 mph61%29.93 "HgN/A
9:00 PM61 °FRefreshingly cool.3 mph59%29.92 "HgN/A
8:00 PM63 °FPartly sunny.2 mph49%29.91 "Hg47 mi
7:00 PM65 °FMild.3 mph45%29.90 "HgN/A
6:00 PM66 °FMild.3 mph41%29.90 "HgN/A
5:00 PM68 °FScattered clouds.2 mph39%29.89 "Hg47 mi
4:00 PM68 °FMild.3 mph40%29.90 "HgN/A
3:00 PM67 °FMild.5 mph39%29.90 "HgN/A
2:00 PM66 °FPartly sunny.6 mph39%29.90 "Hg47 mi
1:00 PM65 °FMild.5 mph41%29.91 "HgN/A
12:00 PM65 °FMild.6 mph44%29.92 "HgN/A
10:00 AM62 °FRefreshingly cool.6 mph46%29.92 "HgN/A
9:00 AM60 °FRefreshingly cool.6 mph51%29.92 "HgN/A
8:00 AM57 °FPassing clouds.5 mph57%29.92 "Hg47 mi
Weather by CustomWeather, © 2014

See weather overviewHow to use our weather pages